User: anonymous   Login
Location: Launois
(49.6535°N, 4.5395°E)
Time: 13:55:12
(UTC+00:00)
Language:

IDEFIX/ARIANE 42P - Orbit

View from above orbital plane
View from above orbital plane
View from above satellite
View from above satellite

Ground track
Ground track

The orbit data is extracted from the following two-line orbital elements,

1 27422U 02021B   24198.81483459  .00000530  00000-0  22109-3 0  9993
2 27422  98.5275 135.9088 0012408 151.5075 208.6788 14.30168829158104
Epoch (UTC): 16 July 2024 19:33:21
Eccentricity: 0.0012408
inclination: 98.5275°
perigee height: 782 km
apogee height: 800 km
right ascension of ascending node: 135.9088°
argument of perigee: 151.5075°
revolutions per day: 14.30168829
mean anomaly at epoch: 208.6788°
orbit number at epoch: 15810

The dashed part of the orbit path shows where the satellite is in the earth's shadow,  

DLR